QPF
0.00 0.00 0.00 0.02 0.04 0.04 0.05 0.01 0.00 0.00 0.00 0.00 0.00 0.00 0.00 0.00 0.00 0.01 0.00 0.00 0.00 0.00 0.00 0.00 0.00 0.00 0.00 0.00 0.00 0.00 0.00 0.00 0.00 0.00 0.00 0.00 0.00 0.00 0.00 0.00 0.00 0.00 0.00 0.00 0.00 0.00 0.00 0.00 0.00
0.00 0.00 0.00 0.00 0.03 0.17 0.17 0.03 0.00 0.00 0.00 0.00 0.00 0.00 0.00 0.00 0.00 0.00 0.00 0.00 0.00 0.00 0.00 0.00 0.00 0.00 0.00 0.00 0.00 0.00 0.00 0.00 0.00 0.00 0.00 0.00 0.00 0.00 0.00 0.00 0.00 0.00 0.00 0.00 0.00 0.00 0.00 0.00 0.00
0.00 0.00 0.00 0.00 0.02 0.16 0.17 0.02 0.00 0.00 0.00 0.00 0.00 0.00 0.00 0.00 0.00 0.00 0.00 0.00 0.00 0.00 0.00 0.00 0.00 0.00 0.00 0.00 0.00 0.00 0.00 0.00 0.00 0.00 0.00 0.00 0.00 0.00 0.00 0.00 0.00 0.00 0.00 0.00 0.00 0.00 0.00 0.00 0.00
0.00 0.00 0.00 0.00 0.01 0.05 0.04 0.02 0.02 0.01 0.00 0.00 0.00 0.00 0.00 0.00 0.00 0.00 0.00 0.00 0.00 0.00 0.00 0.00 0.00 0.00 0.00 0.00 0.00 0.00 0.00 0.00 0.00 0.00 0.00 0.00 0.00 0.00 0.00 0.00 0.00 0.00 0.00 0.00 0.00 0.00 0.00 0.00 0.00
0.00 0.00 0.00 0.00 0.01 0.03 0.04 0.04 0.02 0.01 0.00 0.00 0.00 0.00 0.00 0.00 0.00 0.00 0.00 0.00 0.00 0.00 0.00 0.00 0.00 0.00 0.00 0.00 0.00 0.00 0.00 0.00 0.00 0.00 0.00 0.00 0.00 0.00 0.00 0.00 0.00 0.00 0.00 0.00 0.00 0.00 0.00 0.00 0.00
0.00 0.00 0.00 0.00 0.00 0.02 0.03 0.03 0.02 0.02 0.00 0.00 0.00 0.00 0.00 0.00 0.00 0.00 0.00 0.00 0.00 0.00 0.00 0.00 0.00 0.00 0.00 0.00 0.00 0.00 0.00 0.00 0.00 0.00 0.00 0.00 0.00 0.00 0.00 0.00 0.00 0.00 0.00 0.00 0.00 0.00 0.00 0.00 0.00
0.00 0.00 0.00 0.00 0.00 0.01 0.01 0.01 0.01 0.01 0.00 0.00 0.00 0.00 0.01 0.00 0.00 0.00 0.00 0.00 0.00 0.00 0.00 0.00 0.00 0.00 0.00 0.00 0.00 0.00 0.00 0.00 0.00 0.00 0.00 0.00 0.00 0.00 0.00 0.00 0.00 0.00 0.00 0.00 0.00 0.00 0.00 0.00 0.00
0.00 0.00 0.00 0.00 0.00 0.00 0.00 0.00 0.00 0.00 0.00 0.00 0.00 0.00 0.01 0.00 0.00 0.00 0.00 0.00 0.00 0.00 0.00 0.00 0.00 0.00 0.00 0.00 0.00 0.00 0.00 0.00 0.00 0.00 0.00 0.00 0.00 0.00 0.00 0.00 0.00 0.00 0.00 0.00 0.00 0.00 0.00 0.00 0.00
0.00 0.00 0.00 0.00 0.00 0.00 0.00 0.00 0.00 0.00 0.00 0.00 0.00 0.00 0.01 0.00 0.00 0.00 0.00 0.00 0.00 0.00 0.00 0.00 0.00 0.00 0.00 0.00 0.00 0.00 0.00 0.00 0.00 0.00 0.00 0.00 0.00 0.00 0.00 0.01 0.02 0.01 0.00 0.01 0.01 0.01 0.01 0.01 0.01
0.00 0.00 0.00 0.00 0.00 0.00 0.00 0.00 0.00 0.00 0.00 0.00 0.00 0.00 0.01 0.00 0.00 0.00 0.00 0.00 0.00 0.00 0.00 0.00 0.00 0.00 0.00 0.00 0.00 0.00 0.00 0.00 0.00 0.00 0.00 0.00 0.00 0.00 0.00 0.01 0.02 0.02 0.01 0.01 0.01 0.01 0.01 0.01 0.00
0.00 0.00 0.00 0.00 0.00 0.00 0.00 0.00 0.00 0.00 0.00 0.00 0.00 0.00 0.02 0.01 0.00 0.00 0.00 0.00 0.00 0.00 0.00 0.00 0.00 0.00 0.00 0.00 0.00 0.00 0.00 0.00 0.00 0.00 0.00 0.00 0.00 0.00 0.00 0.00 0.00 0.01 0.01 0.00 0.01 0.01 0.00 0.00 0.00
0.00 0.00 0.00 0.00 0.00 0.00 0.00 0.00 0.00 0.00 0.00 0.00 0.00 0.00 0.01 0.01 0.00 0.00 0.00 0.00 0.00 0.00 0.00 0.00 0.00 0.00 0.00 0.00 0.00 0.00 0.00 0.00 0.00 0.00 0.00 0.00 0.00 0.00 0.00 0.00 0.00 0.00 0.00 0.00 0.00 0.00 0.00 0.00 0.00
0.00 0.00 0.00 0.00 0.00 0.00 0.00 0.00 0.00 0.00 0.00 0.00 0.00 0.00 0.00 0.00 0.00 0.00 0.00 0.00 0.00 0.00 0.00 0.00 0.00 0.00 0.00 0.00 0.00 0.00 0.00 0.00 0.00 0.00 0.00 0.00 0.00 0.00 0.00 0.00 0.00 0.00 0.00 0.00 0.00 0.00 0.00 0.00 0.00
0.00 0.00 0.00 0.00 0.00 0.00 0.00 0.00 0.00 0.00 0.00 0.00 0.00 0.00 0.00 0.00 0.00 0.01 0.00 0.01 0.00 0.00 0.00 0.00 0.00 0.00 0.00 0.00 0.00 0.00 0.00 0.00 0.00 0.00 0.01 0.01 0.00 0.00 0.00 0.00 0.00 0.00 0.01 0.01 0.01 0.01 0.01 0.00 0.00
0.00 0.00 0.00 0.00 0.00 0.00 0.00 0.00 0.00 0.00 0.00 0.00 0.00 0.00 0.00 0.00 0.00 0.01 0.01 0.01 0.00 0.00 0.00 0.00 0.00 0.00 0.00 0.00 0.00 0.01 0.01 0.01 0.04 0.06 0.06 0.06 0.05 0.05 0.05 0.05 0.03 0.03 0.04 0.04 0.03 0.02 0.02 0.02 0.02
0.00 0.00 0.00 0.00 0.00 0.00 0.00 0.00 0.00 0.00 0.00 0.00 0.00 0.00 0.00 0.01 0.01 0.01 0.02 0.02 0.01 0.01 0.01 0.02 0.04 0.04 0.04 0.05 0.07 0.08 0.09 0.12 0.16 0.19 0.18 0.16 0.17 0.18 0.19 0.12 0.07 0.08 0.10 0.10 0.08 0.06 0.07 0.08 0.09
0.00 0.00 0.00 0.00 0.00 0.00 0.00 0.00 0.00 0.00 0.00 0.00 0.00 0.00 0.00 0.00 0.01 0.01 0.02 0.02 0.02 0.01 0.03 0.06 0.11 0.13 0.15 0.20 0.27 0.29 0.27 0.27 0.28 0.28 0.23 0.20 0.22 0.24 0.24 0.15 0.11 0.14 0.15 0.13 0.12 0.11 0.13 0.14 0.14
0.00 0.00 0.00 0.00 0.00 0.00 0.00 0.00 0.00 0.00 0.00 0.00 0.00 0.00 0.00 0.00 0.00 0.00 0.01 0.01 0.01 0.02 0.06 0.11 0.15 0.17 0.18 0.18 0.19 0.19 0.19 0.18 0.18 0.16 0.13 0.12 0.14 0.17 0.25 0.23 0.20 0.25 0.25 0.20 0.23 0.22 0.23 0.18 0.15
0.00 0.00 0.00 0.00 0.00 0.00 0.00 0.00 0.00 0.00 0.00 0.00 0.00 0.00 0.00 0.00 0.00 0.00 0.00 0.00 0.01 0.02 0.04 0.05 0.06 0.06 0.05 0.06 0.06 0.05 0.05 0.04 0.04 0.03 0.03 0.03 0.04 0.09 0.22 0.24 0.23 0.27 0.27 0.25 0.32 0.32 0.26 0.16 0.19
0.00 0.00 0.00 0.00 0.00 0.00 0.00 0.00 0.00 0.00 0.00 0.00 0.00 0.00 0.00 0.00 0.00 0.00 0.00 0.00 0.00 0.00 0.00 0.01 0.01 0.01 0.01 0.01 0.01 0.01 0.01 0.01 0.01 0.00 0.01 0.01 0.02 0.06 0.14 0.18 0.18 0.22 0.24 0.22 0.23 0.26 0.23 0.16 0.22
0.00 0.00 0.00 0.00 0.00 0.00 0.00 0.00 0.00 0.00 0.00 0.00 0.01 0.01 0.01 0.00 0.00 0.00 0.00 0.00 0.00 0.00 0.00 0.00 0.00 0.01 0.00 0.00 0.00 0.00 0.00 0.00 0.00 0.00 0.00 0.01 0.02 0.04 0.07 0.09 0.13 0.17 0.17 0.13 0.13 0.19 0.23 0.19 0.21
0.00 0.00 0.00 0.00 0.00 0.00 0.00 0.00 0.00 0.00 0.01 0.02 0.03 0.03 0.02 0.01 0.00 0.00 0.00 0.00 0.00 0.00 0.00 0.00 0.00 0.00 0.00 0.00 0.00 0.00 0.00 0.00 0.00 0.00 0.00 0.00 0.01 0.02 0.03 0.04 0.06 0.10 0.13 0.12 0.12 0.14 0.16 0.17 0.15
0.00 0.00 0.00 0.00 0.00 0.00 0.00 0.00 0.00 0.01 0.03 0.05 0.06 0.04 0.02 0.01 0.00 0.00 0.00 0.00 0.00 0.00 0.00 0.00 0.00 0.00 0.00 0.00 0.00 0.00 0.00 0.00 0.00 0.00 0.01 0.01 0.01 0.02 0.02 0.03 0.05 0.08 0.09 0.09 0.07 0.07 0.08 0.09 0.11
0.00 0.00 0.00 0.00 0.00 0.00 0.01 0.01 0.02 0.03 0.04 0.05 0.04 0.03 0.01 0.00 0.00 0.00 0.00 0.00 0.00 0.00 0.00 0.00 0.00 0.00 0.00 0.00 0.00 0.01 0.01 0.01 0.01 0.01 0.01 0.01 0.01 0.02 0.03 0.04 0.05 0.06 0.06 0.07 0.06 0.06 0.06 0.06 0.08
0.00 0.00 0.00 0.00 0.00 0.00 0.01 0.01 0.01 0.02 0.02 0.03 0.02 0.01 0.00 0.00 0.00 0.00 0.00 0.00 0.00 0.00 0.00 0.00 0.00 0.00 0.00 0.00 0.00 0.00 0.00 0.00 0.00 0.00 0.01 0.01 0.02 0.03 0.04 0.06 0.06 0.06 0.07 0.07 0.06 0.05 0.05 0.05 0.05
0.00 0.00 0.00 0.00 0.00 0.00 0.00 0.01 0.02 0.02 0.02 0.02 0.01 0.00 0.00 0.00 0.00 0.00 0.00 0.00 0.00 0.00 0.00 0.00 0.00 0.00 0.00 0.00 0.00 0.00 0.00 0.00 0.00 0.00 0.01 0.02 0.03 0.04 0.05 0.07 0.07 0.07 0.08 0.09 0.09 0.08 0.07 0.07 0.07
0.00 0.00 0.00 0.00 0.00 0.00 0.00 0.00 0.01 0.01 0.01 0.00 0.00 0.00 0.00 0.00 0.00 0.00 0.00 0.00 0.00 0.00 0.00 0.00 0.00 0.00 0.00 0.00 0.00 0.00 0.00 0.00 0.00 0.00 0.01 0.02 0.03 0.03 0.04 0.05 0.06 0.06 0.06 0.07 0.10 0.11 0.11 0.13 0.14
0.00 0.00 0.00 0.00 0.00 0.00 0.00 0.00 0.00 0.00 0.00 0.00 0.00 0.00 0.00 0.00 0.00 0.00 0.00 0.00 0.00 0.00 0.00 0.00 0.00 0.00 0.00 0.00 0.00 0.00 0.00 0.00 0.00 0.00 0.01 0.02 0.03 0.04 0.05 0.06 0.06 0.07 0.08 0.12 0.18 0.18 0.18 0.20 0.20
0.00 0.00 0.00 0.00 0.00 0.00 0.00 0.00 0.00 0.00 0.00 0.00 0.00 0.00 0.00 0.00 0.00 0.00 0.00 0.00 0.00 0.00 0.00 0.00 0.00 0.00 0.00 0.00 0.00 0.00 0.00 0.00 0.00 0.00 0.01 0.02 0.03 0.04 0.05 0.05 0.05 0.05 0.06 0.10 0.19 0.30 0.32 0.31 0.29
0.00 0.00 0.00 0.00 0.00 0.00 0.00 0.00 0.00 0.00 0.00 0.00 0.00 0.00 0.00 0.00 0.00 0.00 0.00 0.00 0.00 0.00 0.00 0.00 0.00 0.00 0.00 0.00 0.00 0.00 0.00 0.00 0.00 0.01 0.02 0.02 0.02 0.03 0.03 0.03 0.02 0.02 0.03 0.07 0.14 0.25 0.32 0.35 0.35
MSLP
1009.95 1010.97 1012.10 1013.10 1013.80 1014.06 1013.85 1013.22 1012.33 1011.39 1010.59 1010.10 1009.98 1010.21 1010.70 1011.27 1011.78 1012.11 1012.20 1012.09 1011.88 1011.67 1011.60 1011.72 1012.07 1012.59 1013.19 1013.75 1014.20 1014.48 1014.60 1014.60 1014.56 1014.54 1014.60 1014.75 1014.98 1015.23 1015.45 1015.60 1015.66 1015.65 1015.59 1015.52 1015.48 1015.48 1015.54 1015.62 1015.71
1010.50 1011.69 1012.86 1013.80 1014.33 1014.35 1013.87 1012.98 1011.87 1010.77 1009.89 1009.37 1009.26 1009.51 1010.01 1010.60 1011.11 1011.45 1011.56 1011.50 1011.36 1011.25 1011.28 1011.50 1011.93 1012.49 1013.11 1013.68 1014.12 1014.40 1014.53 1014.56 1014.56 1014.59 1014.69 1014.86 1015.09 1015.31 1015.50 1015.61 1015.64 1015.60 1015.54 1015.47 1015.45 1015.46 1015.52 1015.59 1015.66
1011.16 1012.45 1013.61 1014.43 1014.75 1014.52 1013.77 1012.66 1011.39 1010.20 1009.29 1008.79 1008.72 1009.02 1009.55 1010.15 1010.66 1010.99 1011.12 1011.09 1011.00 1010.97 1011.07 1011.36 1011.82 1012.40 1013.01 1013.56 1013.98 1014.25 1014.39 1014.45 1014.49 1014.57 1014.70 1014.89 1015.11 1015.30 1015.45 1015.52 1015.52 1015.47 1015.41 1015.37 1015.37 1015.41 1015.47 1015.54 1015.59
1011.86 1013.17 1014.25 1014.89 1014.99 1014.51 1013.54 1012.26 1010.89 1009.69 1008.82 1008.39 1008.40 1008.76 1009.33 1009.93 1010.44 1010.76 1010.89 1010.88 1010.84 1010.85 1011.00 1011.33 1011.81 1012.37 1012.94 1013.44 1013.82 1014.06 1014.20 1014.29 1014.37 1014.48 1014.65 1014.85 1015.05 1015.23 1015.34 1015.37 1015.35 1015.30 1015.25 1015.24 1015.27 1015.33 1015.42 1015.49 1015.53
1012.51 1013.75 1014.67 1015.11 1014.97 1014.28 1013.15 1011.78 1010.40 1009.25 1008.48 1008.17 1008.28 1008.72 1009.32 1009.93 1010.42 1010.72 1010.85 1010.86 1010.85 1010.90 1011.09 1011.43 1011.90 1012.42 1012.93 1013.35 1013.67 1013.87 1014.00 1014.09 1014.20 1014.35 1014.55 1014.77 1014.97 1015.12 1015.20 1015.20 1015.16 1015.10 1015.07 1015.09 1015.15 1015.25 1015.36 1015.44 1015.47
1013.02 1014.10 1014.82 1015.02 1014.67 1013.81 1012.58 1011.20 1009.89 1008.87 1008.25 1008.09 1008.31 1008.82 1009.45 1010.05 1010.52 1010.80 1010.92 1010.96 1010.98 1011.08 1011.31 1011.66 1012.10 1012.56 1012.98 1013.32 1013.56 1013.70 1013.80 1013.90 1014.03 1014.22 1014.45 1014.68 1014.87 1015.01 1015.06 1015.04 1014.97 1014.91 1014.89 1014.93 1015.02 1015.15 1015.27 1015.36 1015.39
1013.31 1014.18 1014.65 1014.62 1014.08 1013.11 1011.87 1010.56 1009.39 1008.54 1008.10 1008.09 1008.43 1008.98 1009.62 1010.20 1010.63 1010.90 1011.03 1011.09 1011.17 1011.32 1011.58 1011.94 1012.35 1012.75 1013.10 1013.34 1013.49 1013.58 1013.64 1013.74 1013.89 1014.10 1014.35 1014.59 1014.79 1014.91 1014.94 1014.89 1014.80 1014.73 1014.71 1014.76 1014.87 1015.01 1015.15 1015.24 1015.27
1013.37 1013.99 1014.21 1013.97 1013.29 1012.27 1011.07 1009.89 1008.90 1008.25 1008.00 1008.13 1008.55 1009.14 1009.76 1010.29 1010.69 1010.93 1011.07 1011.17 1011.31 1011.52 1011.83 1012.21 1012.60 1012.95 1013.22 1013.38 1013.45 1013.48 1013.52 1013.60 1013.76 1013.99 1014.26 1014.52 1014.72 1014.82 1014.82 1014.75 1014.64 1014.55 1014.51 1014.56 1014.67 1014.81 1014.96 1015.05 1015.07
1013.23 1013.59 1013.58 1013.16 1012.39 1011.37 1010.27 1009.25 1008.46 1008.02 1007.94 1008.18 1008.65 1009.23 1009.81 1010.29 1010.63 1010.85 1011.00 1011.15 1011.34 1011.62 1011.98 1012.38 1012.77 1013.09 1013.30 1013.39 1013.41 1013.39 1013.40 1013.47 1013.64 1013.88 1014.16 1014.42 1014.62 1014.70 1014.68 1014.58 1014.45 1014.33 1014.28 1014.31 1014.41 1014.55 1014.69 1014.78 1014.80
1012.97 1013.10 1012.88 1012.33 1011.51 1010.54 1009.56 1008.72 1008.13 1007.87 1007.92 1008.24 1008.72 1009.26 1009.76 1010.17 1010.45 1010.65 1010.81 1010.99 1011.25 1011.59 1012.00 1012.43 1012.82 1013.11 1013.29 1013.34 1013.32 1013.27 1013.26 1013.33 1013.50 1013.74 1014.02 1014.28 1014.46 1014.53 1014.49 1014.37 1014.21 1014.07 1014.00 1014.00 1014.09 1014.21 1014.35 1014.43 1014.45
1012.68 1012.62 1012.25 1011.61 1010.79 1009.89 1009.05 1008.37 1007.95 1007.82 1007.97 1008.31 1008.77 1009.24 1009.66 1009.98 1010.20 1010.36 1010.52 1010.74 1011.03 1011.42 1011.87 1012.32 1012.72 1013.01 1013.17 1013.21 1013.17 1013.11 1013.09 1013.15 1013.31 1013.55 1013.81 1014.05 1014.21 1014.26 1014.21 1014.07 1013.90 1013.75 1013.65 1013.64 1013.71 1013.82 1013.95 1014.03 1014.06
1012.47 1012.26 1011.79 1011.11 1010.31 1009.49 1008.77 1008.24 1007.94 1007.91 1008.09 1008.42 1008.82 1009.22 1009.54 1009.78 1009.94 1010.07 1010.22 1010.44 1010.76 1011.16 1011.62 1012.08 1012.48 1012.77 1012.93 1012.98 1012.95 1012.89 1012.88 1012.93 1013.07 1013.28 1013.51 1013.72 1013.85 1013.89 1013.82 1013.68 1013.51 1013.35 1013.26 1013.24 1013.29 1013.40 1013.51 1013.60 1013.63
1012.40 1012.10 1011.57 1010.88 1010.12 1009.38 1008.77 1008.33 1008.12 1008.12 1008.31 1008.60 1008.93 1009.23 1009.47 1009.64 1009.75 1009.85 1009.98 1010.19 1010.49 1010.88 1011.32 1011.77 1012.15 1012.45 1012.62 1012.69 1012.68 1012.65 1012.64 1012.68 1012.80 1012.96 1013.14 1013.30 1013.40 1013.41 1013.34 1013.20 1013.04 1012.91 1012.82 1012.80 1012.86 1012.95 1013.06 1013.15 1013.19
1012.51 1012.15 1011.60 1010.92 1010.21 1009.55 1009.01 1008.64 1008.46 1008.46 1008.61 1008.84 1009.10 1009.33 1009.51 1009.63 1009.70 1009.77 1009.87 1010.04 1010.30 1010.64 1011.03 1011.43 1011.80 1012.08 1012.27 1012.37 1012.40 1012.40 1012.40 1012.43 1012.50 1012.60 1012.72 1012.81 1012.86 1012.85 1012.77 1012.65 1012.52 1012.42 1012.35 1012.35 1012.41 1012.51 1012.61 1012.70 1012.75
1012.76 1012.38 1011.82 1011.18 1010.53 1009.93 1009.44 1009.10 1008.92 1008.89 1008.99 1009.15 1009.35 1009.52 1009.66 1009.76 1009.81 1009.86 1009.93 1010.05 1010.24 1010.49 1010.81 1011.14 1011.46 1011.74 1011.94 1012.08 1012.16 1012.19 1012.20 1012.20 1012.22 1012.25 1012.28 1012.30 1012.29 1012.24 1012.16 1012.07 1011.97 1011.90 1011.87 1011.89 1011.96 1012.05 1012.16 1012.25 1012.30
1013.09 1012.70 1012.17 1011.59 1010.99 1010.45 1010.00 1009.67 1009.47 1009.39 1009.42 1009.52 1009.66 1009.80 1009.92 1010.02 1010.07 1010.11 1010.14 1010.20 1010.30 1010.46 1010.67 1010.92 1011.18 1011.44 1011.66 1011.84 1011.96 1012.02 1012.04 1012.02 1011.98 1011.93 1011.87 1011.79 1011.71 1011.63 1011.54 1011.47 1011.41 1011.38 1011.38 1011.43 1011.50 1011.60 1011.70 1011.79 1011.85
1013.40 1013.03 1012.57 1012.06 1011.55 1011.08 1010.67 1010.33 1010.09 1009.95 1009.90 1009.92 1010.01 1010.13 1010.26 1010.36 1010.43 1010.47 1010.47 1010.46 1010.47 1010.52 1010.61 1010.76 1010.97 1011.20 1011.43 1011.64 1011.80 1011.90 1011.93 1011.89 1011.79 1011.65 1011.48 1011.32 1011.16 1011.03 1010.93 1010.87 1010.84 1010.85 1010.88 1010.95 1011.03 1011.13 1011.23 1011.32 1011.39
1013.61 1013.31 1012.95 1012.56 1012.17 1011.78 1011.41 1011.07 1010.78 1010.56 1010.42 1010.37 1010.40 1010.49 1010.61 1010.73 1010.82 1010.85 1010.83 1010.76 1010.68 1010.62 1010.60 1010.66 1010.80 1011.00 1011.24 1011.48 1011.68 1011.81 1011.84 1011.78 1011.62 1011.39 1011.14 1010.88 1010.65 1010.47 1010.35 1010.29 1010.28 1010.31 1010.37 1010.45 1010.54 1010.64 1010.74 1010.84 1010.92
1013.69 1013.50 1013.30 1013.08 1012.84 1012.57 1012.25 1011.91 1011.56 1011.25 1011.00 1010.84 1010.78 1010.82 1010.93 1011.05 1011.15 1011.18 1011.14 1011.03 1010.87 1010.71 1010.60 1010.57 1010.65 1010.82 1011.06 1011.33 1011.56 1011.72 1011.76 1011.67 1011.46 1011.16 1010.82 1010.48 1010.17 1009.94 1009.79 1009.73 1009.73 1009.77 1009.85 1009.94 1010.03 1010.13 1010.23 1010.34 1010.45
1013.65 1013.63 1013.64 1013.64 1013.59 1013.46 1013.21 1012.87 1012.45 1012.02 1011.62 1011.33 1011.16 1011.11 1011.16 1011.26 1011.35 1011.39 1011.33 1011.18 1010.97 1010.75 1010.56 1010.47 1010.50 1010.64 1010.89 1011.17 1011.43 1011.60 1011.65 1011.54 1011.29 1010.94 1010.52 1010.10 1009.74 1009.45 1009.27 1009.19 1009.18 1009.23 1009.31 1009.40 1009.49 1009.59 1009.71 1009.84 1009.98
1013.53 1013.75 1014.02 1014.27 1014.44 1014.46 1014.30 1013.94 1013.44 1012.86 1012.30 1011.82 1011.49 1011.31 1011.28 1011.32 1011.39 1011.42 1011.36 1011.20 1010.96 1010.70 1010.47 1010.33 1010.33 1010.46 1010.70 1010.99 1011.26 1011.46 1011.51 1011.39 1011.12 1010.72 1010.25 1009.77 1009.34 1009.01 1008.78 1008.67 1008.64 1008.68 1008.75 1008.84 1008.93 1009.04 1009.17 1009.33 1009.51
1013.44 1013.92 1014.48 1015.00 1015.40 1015.57 1015.47 1015.09 1014.48 1013.73 1012.97 1012.28 1011.75 1011.41 1011.25 1011.23 1011.26 1011.27 1011.21 1011.06 1010.84 1010.57 1010.33 1010.18 1010.16 1010.28 1010.51 1010.81 1011.09 1011.29 1011.35 1011.23 1010.94 1010.51 1010.01 1009.48 1009.00 1008.62 1008.34 1008.19 1008.13 1008.14 1008.19 1008.27 1008.37 1008.49 1008.64 1008.83 1009.05
1013.45 1014.20 1015.04 1015.82 1016.41 1016.71 1016.65 1016.22 1015.49 1014.56 1013.57 1012.66 1011.92 1011.40 1011.10 1010.98 1010.97 1010.98 1010.94 1010.82 1010.63 1010.39 1010.17 1010.03 1010.01 1010.12 1010.35 1010.65 1010.94 1011.14 1011.21 1011.10 1010.80 1010.36 1009.83 1009.27 1008.74 1008.30 1007.97 1007.76 1007.65 1007.62 1007.64 1007.71 1007.80 1007.93 1008.11 1008.33 1008.60
1013.64 1014.62 1015.68 1016.66 1017.40 1017.77 1017.71 1017.21 1016.35 1015.24 1014.04 1012.91 1011.96 1011.27 1010.84 1010.63 1010.58 1010.59 1010.58 1010.51 1010.37 1010.19 1010.01 1009.90 1009.89 1010.01 1010.24 1010.53 1010.82 1011.03 1011.11 1011.01 1010.72 1010.28 1009.73 1009.14 1008.57 1008.08 1007.68 1007.40 1007.22 1007.14 1007.13 1007.17 1007.26 1007.40 1007.60 1007.85 1008.15
1014.00 1015.14 1016.34 1017.43 1018.23 1018.62 1018.52 1017.94 1016.95 1015.68 1014.30 1012.99 1011.88 1011.05 1010.51 1010.24 1010.16 1010.18 1010.22 1010.21 1010.13 1010.01 1009.89 1009.81 1009.82 1009.94 1010.17 1010.46 1010.74 1010.96 1011.05 1010.97 1010.70 1010.28 1009.73 1009.12 1008.52 1007.96 1007.49 1007.14 1006.89 1006.74 1006.68 1006.69 1006.77 1006.91 1007.12 1007.39 1007.72
1014.50 1015.69 1016.92 1018.02 1018.80 1019.14 1018.98 1018.30 1017.21 1015.82 1014.34 1012.92 1011.70 1010.79 1010.19 1009.88 1009.79 1009.83 1009.91 1009.95 1009.94 1009.88 1009.80 1009.75 1009.78 1009.90 1010.12 1010.40 1010.69 1010.91 1011.03 1010.97 1010.74 1010.34 1009.81 1009.20 1008.56 1007.96 1007.42 1006.98 1006.65 1006.43 1006.31 1006.29 1006.35 1006.49 1006.71 1006.99 1007.33
1015.04 1016.18 1017.33 1018.34 1019.02 1019.26 1019.01 1018.26 1017.10 1015.68 1014.16 1012.72 1011.49 1010.55 1009.95 1009.64 1009.56 1009.62 1009.72 1009.80 1009.83 1009.80 1009.74 1009.71 1009.73 1009.85 1010.05 1010.31 1010.59 1010.83 1010.97 1010.97 1010.78 1010.43 1009.94 1009.34 1008.70 1008.06 1007.46 1006.95 1006.54 1006.25 1006.08 1006.01 1006.05 1006.19 1006.41 1006.70 1007.03
1015.52 1016.52 1017.51 1018.34 1018.87 1018.98 1018.64 1017.85 1016.70 1015.31 1013.86 1012.48 1011.32 1010.44 1009.87 1009.59 1009.52 1009.59 1009.70 1009.78 1009.81 1009.77 1009.70 1009.65 1009.64 1009.72 1009.89 1010.13 1010.41 1010.66 1010.84 1010.89 1010.78 1010.50 1010.07 1009.52 1008.89 1008.24 1007.61 1007.05 1006.58 1006.22 1005.99 1005.89 1005.91 1006.03 1006.25 1006.54 1006.87
1015.86 1016.65 1017.42 1018.04 1018.39 1018.38 1017.98 1017.21 1016.13 1014.86 1013.55 1012.33 1011.30 1010.54 1010.04 1009.80 1009.75 1009.79 1009.86 1009.90 1009.88 1009.78 1009.66 1009.54 1009.47 1009.49 1009.61 1009.81 1010.08 1010.34 1010.57 1010.69 1010.66 1010.48 1010.14 1009.67 1009.10 1008.47 1007.85 1007.26 1006.76 1006.36 1006.10 1005.97 1005.96 1006.08 1006.29 1006.57 1006.88
1016.02 1016.59 1017.12 1017.53 1017.72 1017.62 1017.21 1016.51 1015.57 1014.49 1013.39 1012.38 1011.53 1010.90 1010.50 1010.29 1010.22 1010.22 1010.21 1010.16 1010.03 1009.83 1009.60 1009.37 1009.21 1009.14 1009.18 1009.34 1009.58 1009.86 1010.12 1010.32 1010.40 1010.33 1010.12 1009.76 1009.29 1008.73 1008.15 1007.58 1007.08 1006.67 1006.39 1006.24 1006.22 1006.32 1006.52 1006.79 1007.10
Thickness
5851 5851 5847 5835 5818 5801 5800 5818 5838 5844 5850 5860 5862 5855 5843 5836 5827 5817 5841 5847 5842 5835 5830 5828 5825 5822 5819 5815 5811 5808 5805 5803 5801 5799 5798 5796 5794 5791 5790 5788 5786 5783 5780 5778 5776 5775 5773 5771 5769
5852 5851 5840 5825 5805 5783 5797 5824 5836 5848 5859 5866 5864 5857 5847 5842 5846 5841 5842 5845 5844 5837 5833 5829 5826 5823 5820 5817 5813 5809 5806 5803 5801 5799 5797 5796 5794 5792 5789 5788 5786 5784 5781 5779 5777 5775 5774 5772 5770
5851 5847 5827 5812 5798 5789 5802 5829 5843 5859 5869 5867 5858 5856 5849 5845 5849 5845 5848 5847 5842 5837 5834 5831 5826 5823 5820 5817 5814 5811 5807 5804 5801 5799 5797 5795 5794 5792 5789 5787 5786 5784 5782 5780 5778 5776 5774 5772 5771
5847 5833 5820 5801 5797 5813 5823 5839 5851 5857 5863 5866 5857 5845 5851 5862 5859 5853 5850 5846 5840 5836 5833 5831 5827 5823 5820 5817 5814 5811 5808 5805 5802 5800 5797 5795 5793 5791 5789 5787 5785 5783 5782 5780 5778 5776 5774 5772 5771
5842 5822 5804 5790 5805 5827 5840 5850 5857 5854 5857 5857 5854 5838 5840 5859 5863 5854 5848 5845 5840 5835 5832 5830 5826 5823 5820 5817 5813 5810 5807 5804 5802 5799 5797 5795 5793 5790 5788 5785 5784 5783 5781 5779 5778 5776 5774 5773 5771
5827 5814 5790 5782 5808 5833 5845 5855 5860 5856 5855 5855 5850 5836 5837 5853 5853 5848 5846 5843 5841 5836 5831 5828 5825 5821 5818 5816 5813 5809 5806 5803 5800 5798 5796 5794 5792 5790 5787 5785 5783 5781 5780 5779 5777 5775 5774 5773 5772
5819 5804 5791 5797 5810 5829 5847 5861 5857 5854 5854 5858 5857 5833 5834 5844 5850 5848 5843 5841 5838 5834 5830 5827 5824 5820 5817 5815 5812 5809 5806 5803 5801 5798 5796 5794 5792 5789 5787 5785 5783 5780 5779 5777 5776 5775 5774 5773 5772
5829 5804 5794 5797 5814 5829 5855 5863 5867 5862 5860 5872 5865 5838 5831 5845 5852 5848 5841 5837 5834 5831 5828 5825 5822 5819 5816 5813 5810 5807 5805 5803 5801 5798 5796 5794 5792 5789 5787 5784 5782 5780 5778 5777 5776 5774 5773 5772 5771
5836 5795 5782 5800 5812 5828 5854 5855 5863 5875 5870 5871 5870 5862 5860 5859 5854 5846 5837 5831 5828 5827 5824 5822 5819 5817 5813 5810 5807 5805 5803 5801 5799 5796 5794 5792 5790 5789 5786 5784 5782 5780 5778 5776 5775 5774 5773 5771 5770
5817 5788 5798 5821 5831 5836 5849 5851 5854 5855 5852 5851 5855 5861 5863 5857 5850 5842 5835 5828 5824 5822 5821 5819 5817 5814 5811 5808 5806 5803 5800 5798 5796 5794 5791 5789 5788 5786 5784 5783 5781 5780 5778 5776 5774 5772 5771 5769 5769
5819 5807 5819 5831 5842 5847 5847 5850 5855 5844 5835 5843 5844 5848 5851 5849 5843 5839 5835 5831 5827 5823 5820 5817 5814 5811 5808 5806 5803 5799 5796 5794 5792 5790 5788 5786 5784 5782 5781 5780 5779 5778 5776 5774 5773 5771 5769 5768 5767
5820 5823 5830 5837 5847 5846 5847 5851 5848 5844 5843 5855 5855 5853 5849 5843 5839 5835 5832 5830 5827 5822 5819 5816 5812 5808 5805 5802 5799 5796 5792 5790 5788 5786 5784 5782 5780 5779 5777 5776 5775 5774 5774 5772 5770 5768 5767 5766 5765
5815 5821 5833 5843 5845 5847 5849 5845 5845 5844 5850 5851 5848 5846 5842 5840 5837 5836 5833 5828 5823 5819 5818 5816 5812 5806 5802 5798 5796 5792 5789 5787 5785 5783 5781 5779 5777 5775 5774 5773 5772 5771 5771 5770 5768 5765 5763 5763 5763
5818 5826 5832 5839 5841 5844 5838 5837 5839 5838 5842 5836 5832 5830 5833 5832 5831 5828 5825 5820 5816 5814 5813 5813 5809 5804 5799 5795 5792 5790 5787 5784 5781 5779 5777 5774 5772 5771 5769 5769 5769 5768 5767 5766 5765 5763 5761 5760 5760
5819 5815 5818 5828 5832 5835 5830 5817 5827 5836 5836 5824 5820 5819 5820 5820 5821 5819 5817 5814 5811 5809 5807 5804 5801 5797 5792 5789 5786 5783 5781 5779 5776 5774 5772 5769 5767 5765 5764 5763 5763 5764 5763 5762 5761 5760 5758 5756 5756
5802 5793 5785 5809 5822 5828 5811 5791 5818 5833 5827 5814 5811 5810 5809 5808 5809 5810 5810 5807 5805 5801 5797 5794 5791 5785 5782 5779 5777 5774 5771 5769 5768 5767 5766 5765 5763 5761 5759 5758 5759 5760 5758 5757 5755 5754 5752 5751 5750
5768 5762 5770 5794 5819 5819 5805 5791 5809 5822 5819 5809 5806 5803 5801 5798 5799 5801 5801 5798 5795 5792 5787 5782 5777 5773 5770 5768 5765 5762 5761 5760 5760 5759 5759 5759 5759 5758 5757 5756 5756 5756 5754 5753 5751 5749 5747 5744 5744
5748 5755 5766 5777 5803 5809 5796 5792 5803 5812 5812 5805 5801 5798 5794 5791 5791 5794 5794 5791 5787 5783 5779 5774 5770 5766 5763 5760 5757 5754 5753 5753 5753 5753 5753 5753 5753 5753 5752 5752 5753 5751 5748 5747 5746 5743 5742 5740 5739
5768 5765 5763 5776 5795 5790 5784 5787 5794 5802 5802 5795 5790 5786 5785 5785 5788 5790 5789 5786 5781 5775 5771 5767 5763 5759 5755 5751 5747 5744 5743 5744 5744 5745 5746 5746 5746 5746 5745 5746 5746 5746 5743 5742 5741 5738 5735 5734 5734
5770 5760 5759 5770 5786 5783 5774 5775 5786 5791 5792 5790 5783 5778 5777 5776 5778 5780 5779 5777 5772 5767 5763 5759 5756 5752 5749 5745 5742 5739 5738 5737 5737 5738 5738 5738 5738 5739 5738 5738 5738 5738 5737 5737 5736 5732 5729 5728 5727
5762 5756 5755 5757 5766 5770 5764 5751 5761 5774 5782 5783 5778 5773 5772 5771 5768 5769 5769 5768 5765 5761 5759 5756 5752 5749 5745 5742 5737 5733 5730 5728 5728 5729 5730 5732 5732 5732 5732 5731 5731 5731 5730 5730 5730 5727 5723 5720 5721
5747 5764 5764 5760 5745 5734 5745 5716 5740 5756 5760 5763 5764 5763 5763 5765 5764 5763 5762 5761 5760 5759 5758 5753 5749 5745 5742 5738 5731 5725 5720 5717 5719 5721 5723 5725 5726 5726 5726 5726 5726 5724 5723 5723 5723 5722 5719 5715 5713
5757 5767 5760 5753 5740 5728 5733 5717 5726 5745 5742 5747 5753 5756 5757 5760 5760 5759 5760 5759 5759 5757 5752 5747 5743 5738 5734 5730 5725 5719 5715 5713 5713 5714 5715 5717 5719 5720 5721 5721 5720 5719 5718 5717 5716 5715 5713 5710 5708
5766 5755 5743 5731 5716 5702 5718 5712 5711 5726 5736 5740 5744 5749 5753 5756 5758 5758 5758 5756 5752 5749 5744 5739 5732 5727 5723 5719 5714 5709 5705 5703 5703 5703 5705 5708 5711 5713 5715 5715 5715 5714 5712 5711 5710 5708 5705 5703 5700
5752 5717 5691 5690 5682 5690 5716 5708 5706 5733 5744 5744 5743 5746 5751 5753 5752 5750 5747 5744 5742 5739 5734 5729 5723 5717 5713 5708 5703 5698 5695 5692 5691 5691 5693 5696 5700 5703 5706 5707 5707 5706 5705 5704 5702 5699 5696 5694 5691
5746 5720 5687 5677 5674 5685 5704 5700 5713 5739 5747 5749 5748 5746 5747 5745 5744 5742 5740 5737 5734 5731 5726 5721 5715 5709 5704 5699 5693 5689 5684 5681 5679 5680 5682 5685 5689 5693 5697 5698 5698 5698 5696 5694 5692 5689 5687 5685 5682
5741 5726 5717 5691 5691 5685 5693 5709 5722 5735 5736 5739 5740 5740 5739 5739 5740 5739 5736 5733 5730 5726 5722 5716 5709 5703 5697 5692 5686 5680 5675 5671 5669 5669 5671 5674 5678 5683 5686 5687 5687 5686 5685 5683 5681 5678 5677 5675 5673
5750 5735 5708 5694 5678 5669 5684 5695 5699 5719 5724 5731 5733 5734 5736 5737 5736 5735 5732 5730 5727 5724 5719 5713 5706 5699 5692 5686 5681 5674 5668 5663 5660 5659 5660 5663 5666 5669 5671 5673 5673 5673 5672 5671 5670 5669 5668 5667 5666
5735 5731 5713 5692 5681 5668 5664 5682 5721 5723 5729 5731 5732 5731 5729 5728 5726 5725 5724 5724 5722 5719 5713 5707 5701 5695 5688 5682 5676 5669 5662 5657 5652 5650 5651 5652 5654 5656 5657 5658 5659 5659 5660 5660 5660 5660 5661 5660 5658
5738 5728 5707 5687 5684 5679 5669 5685 5729 5728 5726 5724 5720 5720 5718 5717 5716 5715 5715 5714 5712 5710 5706 5701 5697 5691 5686 5679 5672 5665 5659 5653 5647 5644 5643 5643 5643 5644 5645 5646 5646 5647 5649 5650 5651 5652 5653 5652 5650